[[{"header":{"parameterUnit":"m.s-1","parameterCategory":1,"la1":30.2991,"la2":30.254,"lo1":-89.0895,"lo2":-89.0444,"dy":0.0017,"dx":0.0017,"nx":28,"ny":28,"refTime":"2025-06-17T09:00:00:Z","depth":0,"parameterNumber":2,"parameterNumberName":"U-component_of_WINDS"},"data":[0,0,0,0,0,0,0,0,0,0,0,0,0,0,0,0,0,0,0,0,0,0,0,0,0,0,0,0,0,0,0,0,0,0,0,0,0,0,0,0,0,0,0,0,0,0,0,0,0,0,0,0,0,0,0,0,0,0,0.2113,0.2114,0,0.2224,0.2225,0.2226,0.2284,0.2284,0.2284,0.2284,0.2399,0.2402,0.2405,0,0,0,0,0,0,0,0,0,0,0,0,0,0.1953,0.1956,0.2113,0.2114,0.2116,0.2223,0.2225,0.2226,0.2284,0.2284,0.2284,0.2284,0.2398,0.2402,0.2405,0,0,0,0,0,0,0,0,0,0,0,0,0,0.2039,0.1957,0.2113,0.2157,0.2162,0.2223,0.2225,0.2227,0.2284,0.2284,0.2284,0.2284,0.2397,0.2401,0.2406,0.2432,0,0,0.242,0.2422,0,0,0,0,0,0,0,0,0.2034,0.2045,0.2149,0.2154,0.216,0.224,0.2211,0.2296,0.2284,0.2238,0.2284,0.2284,0.2346,0.2355,0.2376,0.2437,0.2442,0.242,0.2423,0.2425,0.2426,0,0,0,0,0,0,0,0.2028,0.204,0.2157,0.2151,0.2157,0.2172,0.2185,0.2227,0.229,0.2242,0.2246,0.2258,0.2349,0.2371,0.2379,0.2444,0.242,0.2424,0.2427,0.2429,0.2532,0.2532,0,0,0,0,0,0,0.2015,0.2035,0.2153,0.216,0.2096,0.2175,0.2189,0.2214,0.229,0.2301,0.2258,0.226,0.2363,0.2373,0.2383,0.2419,0.2425,0.2429,0.2432,0.2532,0.2532,0.2532,0,0,0,0,0,0,0.2011,0.2025,0.2149,0.2099,0.2116,0.2178,0.2206,0.2216,0.2238,0.2302,0.2314,0.2269,0.2364,0.2377,0.2419,0.2423,0.2431,0.2435,0.2532,0.2532,0.2532,0.249,0,0,0,0,0,0,0.2006,0.2023,0.2033,0.2099,0.2118,0.2182,0.2206,0.2218,0.2246,0.225,0.2315,0.2326,0.2365,0.2412,0.2424,0.243,0.2439,0.2532,0.2532,0.2532,0.2491,0.2488,0.2486,0,0,0,0,0,0.2,0.2017,0.2033,0.2047,0.2132,0.2183,0.2194,0.2237,0.2246,0.2257,0.2298,0.2324,0.2421,0.2416,0.2429,0.2437,0.2532,0.2532,0.2532,0.2492,0.2489,0.2486,0,0,0,0,0,0,0.1951,0.2026,0.2045,0.2084,0.2126,0.2192,0.2207,0.2232,0.2274,0.2277,0.2329,0.2344,0.2381,0.2413,0.2407,0.2466,0.2479,0.2482,0.2444,0.2441,0.2439,0.2431,0.2442,0,0,0,0,0,0.1944,0.1979,0.2043,0.207,0.2091,0.2145,0.2169,0.2198,0.2245,0.2264,0.2308,0.2353,0.2393,0.2419,0.246,0.2495,0.2511,0.2507,0.2505,0.2502,0.2505,0.2526,0.2526,0.2533,0.2533,0.2533,0,0,0.1932,0.1977,0.1995,0.2062,0.2098,0.2133,0.216,0.2196,0.2222,0.2269,0.2312,0.2346,0.2399,0.2439,0.2458,0.2467,0.2506,0.2502,0.25,0.2504,0.2526,0.2526,0.2525,0.2533,0.2533,0.2533,0,0,0.1926,0.1963,0.1991,0.2027,0.2081,0.2117,0.2123,0.2186,0.221,0.2253,0.2289,0.2322,0.2391,0.2427,0.2455,0.2463,0.2489,0.2474,0.2462,0.2482,0.2482,0.2481,0.2485,0.2485,0.2476,0.2476,0.2476,0,0.1904,0.1957,0.2002,0.2036,0.2064,0.2107,0.2135,0.2168,0.2233,0.2252,0.226,0.2347,0.2386,0.2435,0.2437,0.2457,0.2467,0.2468,0.2478,0.2478,0.2479,0.2483,0.2484,0.2474,0.2474,0.2474,0.2475,0,0.1927,0.1963,0.1979,0.204,0.207,0.2101,0.2151,0.2176,0.2203,0.2238,0.2282,0.233,0.2381,0.2395,0.2422,0.2447,0.2451,0.2468,0.2482,0.2475,0.248,0.2482,0.2471,0.2472,0.2472,0.2473,0,0,0.1894,0.1979,0.1985,0.2013,0.2076,0.2106,0.2138,0.2188,0.2209,0.2252,0.2281,0.2338,0.2354,0.2385,0.2416,0.2434,0.2438,0.2449,0.2451,0.2446,0.247,0.2458,0.2459,0.2455,0.2456,0.2456,0.2466,0,0.1899,0.1959,0.2,0.2045,0.208,0.2121,0.2149,0.2191,0.2225,0.226,0.2297,0.2337,0.2354,0.2373,0.2393,0.2433,0.2444,0.2433,0.2484,0.2485,0.247,0.2461,0.2448,0.2455,0.2468,0.2468,0.2468,0,0.1912,0.1953,0.2001,0.2061,0.2077,0.2102,0.215,0.2183,0.2231,0.2255,0.2289,0.2321,0.2358,0.2368,0.242,0.2412,0.2435,0.2458,0.2459,0.2467,0.2477,0.2469,0.2458,0.246,0.2472,0.2471,0.2471,0,0.1884,0.1952,0.199,0.2013,0.2083,0.2099,0.2129,0.2178,0.2205,0.2248,0.2266,0.2313,0.2338,0.2374,0.2417,0.2421,0.2465,0.2479,0.2487,0.2485,0.2495,0.2494,0.2489,0.2508,0.2508,0.2508,0.2508,0,0.1886,0.1913,0.1978,0.2002,0.2034,0.2081,0.2112,0.2146,0.2189,0.2219,0.2258,0.2286,0.2341,0.2376,0.2411,0.2449,0.246,0.2481,0.249,0.2478,0.2475,0.2495,0.2496,0.2508,0.2508,0.2508,0.2508,0,0.1861,0.1906,0.1949,0.2012,0.2028,0.2049,0.2103,0.2127,0.2162,0.2201,0.2213,0.2268,0.2311,0.2358,0.2417,0.244,0.2477,0.2489,0.2461,0.2466,0.2471,0.247,0.2479,0.2483,0.2498,0.2498,0.2497,0,0.1859,0.1882,0.1946,0.1969,0.1998,0.2035,0.2062,0.2109,0.2137,0.2193,0.2211,0.2257,0.2296,0.2364,0.241,0.2455,0.2469,0.2469,0.2477,0.2464,0.247,0.2469,0.2472,0.2467,0.2467,0.2466,0.2466,0,0.1852,0.1872,0.1911,0.1956,0.1988,0.2027,0.2067,0.2083,0.2138,0.2167,0.2211,0.2242,0.2302,0.2347,0.2398,0.243,0.2458,0.2463,0.2468,0.2456,0.2439,0.2449,0.2455,0.2463,0.2464,0.2464,0.2464,0.2464,0.1839,0.1861,0.191,0.1951,0.1986,0.2022,0.2048,0.2086,0.2124,0.2176,0.2201,0.2245,0.2294,0.2365,0.2396,0.2431,0.244,0.2446,0.2448,0.2449,0.2446,0.2432,0.2441,0.2441,0.2441,0.2441,0.2441,0,0.1835,0.1868,0.1905,0.1959,0.1992,0.2014,0.2059,0.2085,0.2123,0.2165,0.2203,0.2254,0.2298,0.2347,0.2394,0.2413,0.2427,0.2424,0.2424,0.2431,0.2435,0.2427,0.2412,0.2412,0.2412,0.2412,0.2412,0.2412,0.1836,0.1874,0.1901,0.1957,0.199,0.2033,0.2057,0.2091,0.2125,0.218,0.2216,0.2248,0.2293,0.2343,0.2385,0.2398,0.2414,0.2408,0.2425,0.2428,0.2431,0.2433,0.2426,0.2411,0.2411,0.2418,0.2418,0.2418]},{"header":{"parameterUnit":"m.s-1","parameterCategory":1,"la1":30.2991,"la2":30.254,"lo1":-89.0895,"lo2":-89.0444,"dy":0.0017,"dx":0.0017,"nx":28,"ny":28,"refTime":"2025-06-17T09:00:00:Z","depth":0,"parameterNumber":3,"parameterNumberName":"V-component_of_WINDS"},"data":[0,0,0,0,0,0,0,0,0,0,0,0,0,0,0,0,0,0,0,0,0,0,0,0,0,0,0,0,0,0,0,0,0,0,0,0,0,0,0,0,0,0,0,0,0,0,0,0,0,0,0,0,0,0,0,0,0,0,5.4955,5.4956,0,5.5022,5.5023,5.5024,5.5022,5.5021,5.502,5.502,5.5081,5.5083,5.5086,0,0,0,0,0,0,0,0,0,0,0,0,0,5.4818,5.4821,5.4955,5.4956,5.4957,5.5022,5.5023,5.5024,5.5022,5.5021,5.502,5.5019,5.508,5.5083,5.5086,0,0,0,0,0,0,0,0,0,0,0,0,0,5.4881,5.4822,5.4955,5.4964,5.4966,5.5022,5.5023,5.5024,5.5023,5.5021,5.502,5.5019,5.5079,5.5082,5.5086,5.5135,0,0,5.5097,5.5099,0,0,0,0,0,0,0,0,5.4877,5.4886,5.4962,5.4964,5.4965,5.5013,5.4997,5.5061,5.5023,5.5001,5.502,5.5018,5.5059,5.5064,5.5079,5.5138,5.5141,5.5098,5.51,5.5102,5.5103,0,0,0,0,0,0,0,5.4873,5.4883,5.4981,5.4963,5.4965,5.4962,5.497,5.5009,5.5036,5.5003,5.5003,5.5011,5.5059,5.5076,5.5081,5.5142,5.5098,5.5101,5.5103,5.5105,5.5244,5.5246,0,0,0,0,0,0,5.4868,5.4879,5.4979,5.4983,5.4917,5.4966,5.4974,5.4999,5.5036,5.504,5.5012,5.5011,5.507,5.5076,5.5083,5.5143,5.5101,5.5105,5.5107,5.5243,5.5245,5.5246,0,0,0,0,0,0,5.4865,5.4877,5.4977,5.4931,5.4944,5.497,5.4997,5.5001,5.5017,5.5043,5.5047,5.5024,5.5069,5.5077,5.5123,5.5145,5.5107,5.511,5.5241,5.5243,5.5246,5.5265,0,0,0,0,0,0,5.4861,5.4876,5.4896,5.4932,5.4946,5.5018,5.4999,5.5003,5.5024,5.5023,5.5056,5.506,5.5069,5.5117,5.5127,5.515,5.5113,5.5239,5.5242,5.5245,5.5262,5.5267,5.5272,0,0,0,0,0,5.4856,5.4897,5.4898,5.491,5.4973,5.5019,5.5027,5.5039,5.5026,5.5046,5.5063,5.5059,5.5141,5.5122,5.5132,5.5157,5.5238,5.5241,5.5245,5.526,5.5266,5.5271,0,0,0,0,0,0,5.4861,5.4902,5.4903,5.4958,5.4985,5.5019,5.5045,5.5045,5.5075,5.5073,5.5084,5.5091,5.5136,5.5151,5.5129,5.5206,5.5188,5.5193,5.5196,5.5202,5.5207,5.5202,5.5116,0,0,0,0,0,5.4869,5.4905,5.4938,5.4983,5.4997,5.5019,5.5039,5.5046,5.5074,5.5085,5.5105,5.513,5.5162,5.5182,5.5213,5.5264,5.527,5.5286,5.529,5.5294,5.5299,5.5327,5.5334,5.5257,5.5257,5.5257,0,0,5.4885,5.4912,5.4934,5.4985,5.5007,5.5043,5.5029,5.5066,5.5092,5.509,5.5135,5.515,5.5179,5.5228,5.525,5.5241,5.5321,5.5298,5.5301,5.5304,5.5331,5.5338,5.5345,5.526,5.5259,5.5259,0,0,5.4932,5.4957,5.4997,5.5021,5.5055,5.5069,5.5079,5.5113,5.5124,5.517,5.5169,5.5198,5.5253,5.5273,5.5291,5.5346,5.5343,5.5356,5.5381,5.5408,5.5414,5.5419,5.5439,5.5446,5.536,5.536,5.536,0,5.4947,5.5003,5.5017,5.5056,5.5078,5.508,5.512,5.5141,5.5183,5.5197,5.5187,5.5256,5.5275,5.5329,5.5343,5.5357,5.5367,5.5352,5.5412,5.5418,5.5423,5.5442,5.5449,5.5361,5.5361,5.5361,5.5361,0,5.5019,5.5058,5.5086,5.513,5.5154,5.5193,5.5211,5.5234,5.5239,5.5253,5.5299,5.5322,5.5358,5.5371,5.5374,5.5425,5.5418,5.541,5.5392,5.5431,5.5449,5.5457,5.5363,5.5363,5.5363,5.5362,0,0,5.5072,5.5124,5.5134,5.5154,5.5193,5.5222,5.5259,5.5297,5.5316,5.5345,5.5376,5.5422,5.5415,5.5435,5.5441,5.5465,5.5507,5.5453,5.5454,5.5463,5.5564,5.557,5.5579,5.5505,5.5507,5.5508,5.5561,0,5.5124,5.5196,5.5209,5.527,5.5305,5.5308,5.5341,5.5367,5.5381,5.5411,5.5425,5.5458,5.5446,5.5458,5.5482,5.5497,5.5528,5.5493,5.5533,5.5535,5.5527,5.5588,5.5595,5.5645,5.5569,5.557,5.5571,0,5.5195,5.5228,5.5293,5.5328,5.5343,5.5373,5.5408,5.5437,5.5466,5.5474,5.5497,5.55,5.5538,5.5517,5.5569,5.5545,5.5562,5.5572,5.5574,5.5578,5.5556,5.5595,5.5661,5.5669,5.5582,5.5581,5.558,0,5.5227,5.5288,5.5335,5.5352,5.5393,5.5414,5.5431,5.5459,5.5481,5.551,5.5524,5.5557,5.5575,5.5599,5.561,5.5594,5.5661,5.5641,5.5668,5.5667,5.5682,5.5681,5.5752,5.5692,5.5692,5.5692,5.5691,0,5.5284,5.5324,5.5351,5.538,5.5424,5.5438,5.548,5.5497,5.5522,5.5552,5.5555,5.5583,5.5596,5.5625,5.5634,5.5675,5.5682,5.5689,5.5691,5.569,5.5689,5.5701,5.5698,5.5694,5.5693,5.5693,5.5692,0,5.5329,5.5348,5.54,5.5435,5.5445,5.5476,5.5505,5.5532,5.5546,5.5584,5.5594,5.5615,5.565,5.5664,5.5705,5.5711,5.5759,5.5757,5.575,5.5751,5.5777,5.5775,5.5859,5.5871,5.5802,5.5803,5.5803,0,5.5364,5.5395,5.5435,5.5457,5.5476,5.5511,5.5534,5.5548,5.5571,5.5606,5.5629,5.5664,5.5694,5.5749,5.5766,5.5798,5.5798,5.5825,5.5802,5.58,5.5799,5.5797,5.58,5.583,5.583,5.5831,5.5831,0,5.5425,5.5434,5.5468,5.5506,5.5533,5.5563,5.5591,5.5608,5.5627,5.5652,5.5689,5.5712,5.5756,5.5791,5.5824,5.5839,5.5838,5.5838,5.5846,5.5845,5.584,5.5844,5.5762,5.5836,5.5836,5.5836,5.5835,5.5835,5.5467,5.5495,5.5527,5.5565,5.5589,5.5615,5.5643,5.5661,5.5694,5.5732,5.5738,5.5777,5.5804,5.5849,5.5866,5.5895,5.5888,5.5899,5.5902,5.5905,5.5907,5.5835,5.5901,5.5901,5.5901,5.5901,5.59,0,5.5528,5.555,5.5585,5.5626,5.5655,5.5654,5.5685,5.5709,5.5745,5.5772,5.5801,5.5843,5.5877,5.5898,5.5931,5.5951,5.5951,5.5959,5.5958,5.5962,5.5912,5.5902,5.5958,5.5958,5.5958,5.5958,5.5958,5.5958,5.5564,5.5612,5.5624,5.5682,5.5703,5.5744,5.5762,5.5786,5.5807,5.5856,5.5885,5.5899,5.5922,5.5958,5.5988,5.5993,5.6005,5.6014,5.6018,5.5971,5.5965,5.5959,5.595,5.6016,5.6016,5.6066,5.6066,5.6067]}]]